Flag for United Arab Emirates Weather past 2 weeks in Abu Dhabi, Abu Dhabi, United Arab Emirates

Now
100 °F

Clear.


Feels Like: 110 °F
Forecast: 89 / 96 °F
Wind: 8 mph from West

Location: Abu Dhabi Bateen Airport

Current Time: Jul 6, 2015 at 11:46:34 AM

Latest Report: Jul 6, 2015 at 11:00 AM


Visibility: 4 mi

Pressure: 29.50 "Hg

Humidity: 40%

Dew point: 72 °F

Location of Abu DhabiLocation

Historic Weather in Abu Dhabi — Graph

°F

Abu Dhabi temperature yesterday

Maximum temperature yesterday: 113 °F (at 1:00 PM)
Minimum temperature yesterday: 91 °F (at 5:00 AM)
Average temperature yesterday: 100 °F

Past Weeks' High & Low Weather Summary

 TemperatureHumidityPressure
High117 °F (Jul 4, 3:00 PM)89% (Jul 3, 3:00 AM)29.65 "Hg (Jul 3, 3:00 AM)
Low84 °F (Jun 24, 6:00 AM)10% (Jul 4, 4:00 PM)29.36 "Hg (Jun 21, 4:00 PM)
Average95 °F47%29.52 "Hg
* Reported Jun 21 11:00 AM — Jul 6 11:00 AM, Abu Dhabi, Weather by CustomWeather, © 2015

Note: Actual official high and low records may vary slightly from our data, if they occured in-between our weather recording intervals... More about our weather records

Advertising

Abu Dhabi weather history for previous 24 hours

 ConditionsComfort  
Time TempWeatherWind HumidityBarometerVisibility
11:00 AM
Mon, Jul 6
100 °FClear.8 mph40%29.50 "Hg4 mi
10:00 AM99 °FClear.9 mph42%29.50 "Hg4 mi
9:00 AM95 °FClear.6 mph60%29.50 "Hg4 mi
8:00 AM90 °FClear.6 mph79%29.50 "Hg4 mi
7:00 AM90 °FClear.5 mph84%29.50 "Hg4 mi
6:00 AM90 °FSunny.3 mph79%29.50 "Hg10 mi
5:00 AM91 °FClear.2 mph75%29.47 "Hg10 mi
4:00 AM91 °FPassing clouds.3 mph63%29.47 "HgN/A
3:00 AM90 °FPassing clouds.6 mph75%29.47 "HgN/A
2:00 AM93 °FClear.5 mph59%29.47 "Hg10 mi
1:00 AM93 °FClear.3 mph53%29.47 "Hg10 mi
12:00 AM93 °FClear.3 mph59%29.47 "Hg10 mi
11:00 PM
Sun, Jul 5
93 °FClear.3 mph63%29.50 "Hg10 mi
10:00 PM93 °FClear.2 mph67%29.50 "Hg10 mi
9:00 PM93 °FPassing clouds.5 mph67%29.50 "HgN/A
8:00 PM95 °FClear.7 mph63%29.42 "Hg10 mi
7:00 PM97 °FSunny.8 mph50%29.47 "Hg10 mi
6:00 PM100 °FPassing clouds.7 mph40%29.47 "HgN/A
5:00 PM106 °FPassing clouds.10 mph28%29.47 "HgN/A
4:00 PM111 °FPassing clouds.10 mph14%29.47 "HgN/A
3:00 PM111 °FSunny.12 mph13%29.50 "Hg10 mi
2:00 PM113 °FPassing clouds.13 mph12%29.50 "HgN/A
1:00 PM113 °FPassing clouds.6 mph12%29.53 "HgN/A
12:00 PM111 °FPassing clouds.7 mph12%29.56 "HgN/A
11:00 AM109 °FPassing clouds.8 mph14%29.56 "HgN/A
Weather by CustomWeather, © 2015

See weather overviewHow to use our weather pages